Weather History for Holdrege, NE

Change the Weather History Date:

Thursday, November 3, 2011

  Actual Average Record
Temperature  
Mean Temperature 36 °F -  
Max Temperature 48 °F 53 °F 77 °F (1978)
Min Temperature 24 °F 30 °F 1 °F (1991)
Degree Days  
Heating Degree Days 29    
Moisture  
Dew Point 23 °F    
Average Humidity 65    
Maximum Humidity 86    
Minimum Humidity 34    
Precipitation  
Precipitation 0.00 in - - ()
Sea Level Pressure  
Sea Level Pressure 30.30 in    
Wind  
Wind Speed 8 mph (WSW)    
Max Wind Speed 12 mph    
Max Gust Speed -    
Visibility 10 miles    
Events      
Averages and records for this station are not official NWS values.
T = Trace of Precipitation, MM = Missing Value Source: NWS Daily Summary

Daily Weather History Graph

Daily Weather History Graph

Search for Another Location

Airport:

Trip Planner

Search our weather history database for the weather conditions in past years. The results will help you decide how hot, cold, wet, or windy it might be!

Date:

Astronomy

Nov. 03, 2011 Rise Set
Actual Time 8:09 AM CDT 6:31 PM CDT
Civil Twilight 7:40 AM CDT 7:00 PM CDT
Nautical Twilight 7:08 AM CDT 7:32 PM CDT
Astronomical Twilight 6:36 AM CDT 8:04 PM CDT
Moon 2:57 PM CDT (11/3) 1:21 AM CDT (11/3)
Length of Visible Light 11h 19m
Length of Day
10h 22m
First Quarter, 60% of the Moon is Illuminated
Nov 3
First Quarter
Nov 10
Full
Nov 18
Last Quarter
Nov 25
New
Dec 2
First Quarter

Hourly Weather History & Observations

Time (CDT) Temp. Windchill Dew Point Humidity Pressure Visibility Wind Dir Wind Speed Gust Speed Precip Events Conditions
12:15 AM 30.2 °F 21.9 °F 26.6 °F 86% 30.36 in 10.0 mi NW 9.2 mph - N/A   Clear
12:55 AM 30.2 °F 21.9 °F 26.6 °F 86% 30.35 in 10.0 mi NW 9.2 mph - N/A   Clear
1:15 AM 30.2 °F 21.3 °F 24.8 °F 80% 30.35 in 10.0 mi NW 10.4 mph - N/A   Clear
1:35 AM 30.2 °F 21.9 °F 24.8 °F 80% 30.36 in 10.0 mi NW 9.2 mph - N/A   Clear
1:55 AM 28.4 °F 19.7 °F 24.8 °F 86% 30.37 in 10.0 mi NW 9.2 mph - N/A   Clear
2:15 AM 30.2 °F 21.3 °F 24.8 °F 80% 30.36 in 10.0 mi NW 10.4 mph - N/A   Clear
2:35 AM 30.2 °F 21.9 °F 24.8 °F 80% 30.36 in 10.0 mi NW 9.2 mph - N/A   Clear
2:55 AM 28.4 °F 19.7 °F 23.0 °F 80% 30.36 in 10.0 mi NW 9.2 mph - N/A   Clear
3:15 AM 28.4 °F 20.4 °F 23.0 °F 80% 30.35 in 10.0 mi NW 8.1 mph - N/A   Clear
3:35 AM 28.4 °F 20.4 °F 23.0 °F 80% 30.35 in 10.0 mi NW 8.1 mph - N/A   Clear
4:35 AM 26.6 °F 17.5 °F 21.2 °F 80% 30.34 in 10.0 mi NW 9.2 mph - N/A   Clear
4:55 AM 26.6 °F 16.2 °F 21.2 °F 80% 30.35 in 10.0 mi WNW 11.5 mph - N/A   Clear
5:15 AM 26.6 °F 18.2 °F 21.2 °F 80% 30.34 in 10.0 mi WNW 8.1 mph - N/A   Clear
5:35 AM 26.6 °F 16.8 °F 21.2 °F 80% 30.34 in 10.0 mi WNW 10.4 mph - N/A   Clear
5:55 AM 24.8 °F 15.3 °F 21.2 °F 86% 30.34 in 10.0 mi WNW 9.2 mph - N/A   Clear
6:15 AM 26.6 °F 16.8 °F 21.2 °F 80% 30.34 in 10.0 mi NW 10.4 mph - N/A   Clear
6:55 AM 26.6 °F 17.5 °F 21.2 °F 80% 30.35 in 10.0 mi NW 9.2 mph - N/A   Clear
7:15 AM 26.6 °F 19.1 °F 21.2 °F 80% 30.35 in 10.0 mi WNW 6.9 mph - N/A   Clear
7:35 AM 26.6 °F 17.5 °F 19.4 °F 74% 30.36 in 10.0 mi WNW 9.2 mph - N/A   Clear
7:55 AM 26.6 °F 18.2 °F 21.2 °F 80% 30.35 in 10.0 mi WNW 8.1 mph - N/A   Clear
8:15 AM 24.8 °F 15.3 °F 21.2 °F 86% 30.36 in 10.0 mi WNW 9.2 mph - N/A   Clear
8:35 AM 26.6 °F 19.1 °F 21.2 °F 80% 30.36 in 10.0 mi WNW 6.9 mph - N/A   Clear
8:55 AM 26.6 °F 19.1 °F 21.2 °F 80% 30.36 in 10.0 mi WNW 6.9 mph - N/A   Clear
9:15 AM 28.4 °F 20.4 °F 23.0 °F 80% 30.37 in 10.0 mi WNW 8.1 mph - N/A   Clear
9:35 AM 30.2 °F 22.6 °F 23.0 °F 75% 30.37 in 10.0 mi NW 8.1 mph - N/A   Clear
9:55 AM 32.0 °F 26.4 °F 24.8 °F 75% 30.37 in 10.0 mi NW 5.8 mph - N/A   Clear
10:15 AM 32.0 °F 25.6 °F 26.6 °F 80% 30.37 in 10.0 mi NW 6.9 mph - N/A   Clear
10:35 AM 33.8 °F 28.6 °F 28.4 °F 81% 30.37 in 10.0 mi NW 5.8 mph - N/A   Clear
10:55 AM 33.8 °F 27.7 °F 28.4 °F 81% 30.37 in 10.0 mi NW 6.9 mph - N/A   Clear
11:15 AM 35.6 °F 31.7 °F 28.4 °F 75% 30.37 in 10.0 mi NNW 4.6 mph - N/A   Clear
11:35 AM 37.4 °F 34.9 °F 28.4 °F 70% 30.36 in 10.0 mi NW 3.5 mph - N/A   Clear
11:55 AM 41.0 °F 39.0 °F 28.4 °F 61% 30.36 in 10.0 mi NNW 3.5 mph - N/A   Clear
12:35 PM 42.8 °F - 23.0 °F 46% 30.33 in 10.0 mi Calm Calm - N/A   Clear
12:55 PM 42.8 °F - 21.2 °F 42% 30.32 in 10.0 mi Calm Calm - N/A   Clear
1:15 PM 42.8 °F 40.1 °F 21.2 °F 42% 30.31 in 10.0 mi SSW 4.6 mph - N/A   Clear
1:35 PM 44.6 °F 43.1 °F 19.4 °F 37% 30.30 in 10.0 mi South 3.5 mph - N/A   Clear
1:55 PM 44.6 °F 40.7 °F 21.2 °F 39% 30.29 in 10.0 mi SSW 6.9 mph - N/A   Clear
2:15 PM 44.6 °F - 21.2 °F 39% 30.28 in 10.0 mi Calm Calm - N/A   Clear
2:35 PM 46.4 °F 44.3 °F 21.2 °F 37% 30.27 in 10.0 mi South 4.6 mph - N/A   Clear
2:55 PM 46.4 °F 42.9 °F 23.0 °F 40% 30.26 in 10.0 mi South 6.9 mph - N/A   Clear
3:15 PM 46.4 °F 42.9 °F 23.0 °F 40% 30.25 in 10.0 mi SSW 6.9 mph - N/A   Clear
3:35 PM 46.4 °F 42.9 °F 21.2 °F 37% 30.24 in 10.0 mi South 6.9 mph - N/A   Clear
4:15 PM 48.2 °F - 21.2 °F 34% 30.24 in 10.0 mi SW 8.1 mph - N/A   Clear
4:35 PM 46.4 °F 41.9 °F 19.4 °F 34% 30.23 in 10.0 mi SSW 9.2 mph - N/A   Clear
4:55 PM 46.4 °F 42.4 °F 19.4 °F 34% 30.23 in 10.0 mi SW 8.1 mph - N/A   Clear
5:15 PM 46.4 °F 41.5 °F 21.2 °F 37% 30.23 in 10.0 mi SSW 10.4 mph - N/A   Clear
5:35 PM 46.4 °F 42.4 °F 21.2 °F 37% 30.23 in 10.0 mi SSW 8.1 mph - N/A   Clear
5:55 PM 44.6 °F 40.2 °F 21.2 °F 39% 30.23 in 10.0 mi SSW 8.1 mph - N/A   Clear
6:15 PM 42.8 °F 39.3 °F 21.2 °F 42% 30.23 in 10.0 mi SSW 5.8 mph - N/A   Clear
6:35 PM 41.0 °F 37.1 °F 21.2 °F 45% 30.23 in 10.0 mi South 5.8 mph - N/A   Clear
6:55 PM 37.4 °F 33.8 °F 21.2 °F 52% 30.23 in 10.0 mi South 4.6 mph - N/A   Clear
7:15 PM 37.4 °F 32.1 °F 21.2 °F 52% 30.23 in 10.0 mi SSE 6.9 mph - N/A   Clear
7:35 PM 35.6 °F 30.7 °F 21.2 °F 56% 30.23 in 10.0 mi SSE 5.8 mph - N/A   Clear
8:15 PM 30.2 °F 23.4 °F 21.2 °F 69% 30.21 in 10.0 mi SE 6.9 mph - N/A   Clear
8:35 PM 32.0 °F 25.6 °F 21.2 °F 64% 30.21 in 10.0 mi SSE 6.9 mph - N/A   Clear
8:55 PM 32.0 °F 25.6 °F 23.0 °F 69% 30.21 in 10.0 mi SSE 6.9 mph - N/A   Clear
9:15 PM 32.0 °F 24.8 °F 23.0 °F 69% 30.20 in 10.0 mi South 8.1 mph - N/A   Clear
9:35 PM 32.0 °F 24.8 °F 23.0 °F 69% 30.21 in 10.0 mi SSE 8.1 mph - N/A   Clear
9:55 PM 32.0 °F 25.6 °F 23.0 °F 69% 30.22 in 10.0 mi South 6.9 mph - N/A   Clear
10:15 PM 32.0 °F 25.6 °F 23.0 °F 69% 30.21 in 10.0 mi South 6.9 mph - N/A   Clear
10:35 PM 30.2 °F 22.6 °F 23.0 °F 75% 30.21 in 10.0 mi SSE 8.1 mph - N/A   Clear
10:55 PM 30.2 °F 22.6 °F 23.0 °F 75% 30.20 in 10.0 mi SE 8.1 mph - N/A   Clear
11:15 PM 30.2 °F 23.4 °F 23.0 °F 75% 30.20 in 10.0 mi SSE 6.9 mph - N/A   Clear
11:55 PM 28.4 °F 22.2 °F 23.0 °F 80% 30.19 in 10.0 mi SSE 5.8 mph - N/A   Clear